Lawrence, KS

6:24 PM CST on December 15, 2019 (GMT -0600)
Lawrence Municipal

Weather History for KLWC - November, 2019

Change the Weather History Date:

Tuesday, November 12, 2019

  Actual Average Record
Temperature  
Mean Temperature 17 °F 45 °F  
Max Temperature 28 °F 57 °F 79 °F (2005)
Min Temperature 5 °F 33 °F 5 °F (2019)
Degree Days  
Heating Degree Days 48 20  
Month to date heating degree days 313 207  
Since 1 July heating degree days 751 571  
Cooling Degree Days 0 0  
Month to date cooling degree days 0 0  
Year to date cooling degree days 1565 1370  
Moisture  
Dew Point 7 °F    
Average Humidity 65    
Maximum Humidity 80    
Minimum Humidity 50    
Precipitation  
Precipitation 0.00 in 0.07 in 1.23 in (2010)
Month to date precipitation 0.03 1.01  
Year to date precipitation 45.09 35.91  
Sea Level Pressure  
Sea Level Pressure 30.56 in    
Wind  
Wind Speed 7 mph (SSW)    
Max Wind Speed 15 mph    
Max Gust Speed 21 mph    
Visibility 10 miles    
Events      
T = Trace of Precipitation, MM = Missing Value Source: NWS Daily Summary

Daily Weather History Graph

Daily Weather History Graph

Search for Another Location

Airport or City:

Astronomy

Nov. 12, 2019 Rise Set
Actual Time 7:00 AM CST 5:09 PM CST
Civil Twilight 6:31 AM CST 5:37 PM CST
Nautical Twilight 5:59 AM CST 6:09 PM CST
Astronomical Twilight 5:28 AM CST 6:41 PM CST
Moon 5:36 PM CST (11/12) 6:53 AM CST (11/12)
Length of Visible Light 11h 05m
Length of Day
10h 09m
Full, 100% of the Moon is Illuminated
Nov 12
Full
Nov 19
Last Quarter
Nov 26
New
Dec 4
First Quarter
Dec 11
Full

Hourly Weather History & Observations

Time (CST) Temp. Windchill Dew Point Humidity Pressure Visibility Wind Dir Wind Speed Gust Speed Precip Events Conditions
12:52 AM 9.0 °F -0.9 °F 3.0 °F 77% 30.75 in 10.0 mi NW 5.8 mph - N/A   Clear
1:52 AM 8.1 °F -0.5 °F 3.9 °F 83% 30.74 in 10.0 mi North 4.6 mph - N/A   Clear
2:52 AM 7.0 °F -1.7 °F 1.9 °F 80% 30.74 in 10.0 mi NNW 4.6 mph - N/A   Clear
3:52 AM 8.1 °F -3.2 °F 3.0 °F 80% 30.72 in 10.0 mi NNW 6.9 mph - N/A   Clear
4:52 AM 7.0 °F -1.7 °F 1.9 °F 80% 30.73 in 10.0 mi WNW 4.6 mph - N/A   Clear
5:52 AM 6.1 °F -0.9 °F 1.0 °F 80% 30.73 in 10.0 mi NW 3.5 mph - N/A   Clear
6:52 AM 6.1 °F -0.9 °F 1.0 °F 80% 30.73 in 10.0 mi WNW 3.5 mph - N/A   Clear
7:52 AM 9.0 °F 0.6 °F 3.9 °F 80% 30.73 in 10.0 mi WNW 4.6 mph - N/A   Clear
8:52 AM 12.9 °F - 6.1 °F 74% 30.72 in 10.0 mi Calm Calm - N/A   Clear
9:52 AM 16.0 °F - 3.0 °F 57% 30.71 in 10.0 mi Calm Calm - N/A   Clear
10:52 AM 19.0 °F - 6.1 °F 57% 30.68 in 10.0 mi Calm Calm - N/A   Clear
11:52 AM 21.0 °F 16.2 °F 9.0 °F 60% 30.64 in 10.0 mi Variable 3.5 mph - N/A   Clear
12:52 PM 24.1 °F 14.4 °F 9.0 °F 53% 30.59 in 10.0 mi South 9.2 mph - N/A   Clear
1:52 PM 26.1 °F 15.6 °F 10.0 °F 51% 30.53 in 10.0 mi South 11.5 mph - N/A   Clear
2:52 PM 27.0 °F 18.0 °F 10.0 °F 49% 30.50 in 10.0 mi South 9.2 mph - N/A   Clear
3:52 PM 27.0 °F 18.7 °F 10.9 °F 51% 30.47 in 10.0 mi South 8.1 mph - N/A   Clear
4:52 PM 25.0 °F 14.8 °F 10.9 °F 55% 30.45 in 10.0 mi SSE 10.4 mph - N/A   Clear
5:52 PM 23.0 °F 13.1 °F 10.9 °F 60% 30.43 in 10.0 mi SSE 9.2 mph - N/A   Clear
6:52 PM 21.9 °F 9.8 °F 12.0 °F 66% 30.38 in 10.0 mi SE 12.7 mph - N/A   Clear
7:52 PM 21.9 °F 12.5 °F 10.9 °F 63% 30.37 in 10.0 mi SSE 8.1 mph - N/A   Clear
8:52 PM 23.0 °F 12.4 °F 12.0 °F 63% 30.34 in 10.0 mi South 10.4 mph - N/A   Clear
9:52 PM 23.0 °F 11.1 °F 10.9 °F 60% 30.30 in 10.0 mi South 12.7 mph - N/A   Clear
10:52 PM 21.9 °F 11.7 °F 10.9 °F 63% 30.28 in 10.0 mi South 9.2 mph - N/A   Clear
11:52 PM 21.9 °F 11.0 °F 10.9 °F 63% 30.24 in 10.0 mi South 10.4 mph - N/A   Clear